Content
SEND FEEDBACK

Daily
Averages
Monthly
Summary
United States of America

BONO, ARKANSAS


Home > North America > United States > Arkansas
Elevation: 390 feet     Latitude: 35 53N     Longitude: 090 42W

WEATHER
 
SELECT A DAY
Number of Records: 198,262;   Date Range: 1/1/95 - 10/19/14
 
SHARE

PRINT THIS DATA

[ ← Previous Day ]
WEATHER ALMANAC - JANUARY 31, 2013
[ Next Day → ]
[ °C ]   °F
Weather ElementAverageHighLow
Temperature38.4 °F54 °F (3:53 pm)28 °F (11:53 pm)
Dewpoint25 °F35.1 °F (1:53 pm)10 °F (10:53 pm)
Humidity59.9 %78 % (6:53 am)38 % (4:53 pm)
Barometer30.15 in30.38 in (11:53 pm)30.05 in (1:53 am)
Wind Speed11 mph18.4 mph (6:53 pm)
Wind Gust29.9 mph (7:53 pm)
Weather ElementAverage
Visibility10 mi
Wind DirectionWNW (277.8 °)

Weather ElementTotal
Precipitation---
Heating Degree Days24 (Base 65)
Averaged from 23 records on January 31, 2013
WEATHER CONDITIONS BREAKOUT
WIND DIRECTION BREAKOUT
WEATHER BY HOUR - JANUARY 31, 2013
[ °C ]   °F
Local TimeTemperatureDewpointHumidityBarometerVisibilityWind DirectionWind SpeedGust SpeedPrecipitationEventsConditions
1:53 AM32.0 °F21.9 °F66 %30.05 in10.0 miWest (260°)9.2 mphClear
2:53 AM32.0 °F21.9 °F66 %30.06 in10.0 miWest (280°)9.2 mphClear
3:53 AM30.9 °F23.0 °F72 %30.05 in10.0 miWest (270°)6.9 mphClear
4:53 AM30.0 °F23.0 °F75 %30.07 in10.0 miWest (270°)6.9 mphClear
5:53 AM30.0 °F23.0 °F75 %30.10 in10.0 miWest (270°)5.8 mphClear
6:53 AM28.9 °F23.0 °F78 %30.12 in10.0 miWSW (240°)5.8 mphClear
7:53 AM30.9 °F23.0 °F72 %30.14 in10.0 miSW (230°)5.8 mphClear
9:53 AM36.0 °F25.0 °F64 %30.16 in10.0 miSW (230°)12.7 mphClear
10:53 AM39.9 °F28.0 °F63 %30.16 in10.0 miSW (220°)12.7 mphClear
11:53 AM43.0 °F28.9 °F58 %30.12 in10.0 miSW (220°)11.5 mphClear
12:53 PM46.0 °F33.1 °F61 %30.09 in10.0 miSW (220°)13.8 mphClear
1:53 PM50.0 °F35.1 °F57 %30.06 in10.0 miSW (220°)16.1 mphClear
2:53 PM53.1 °F32.0 °F45 %30.05 in10.0 miWSW (240°)10.4 mphClear
3:53 PM54.0 °F33.1 °F45 %30.06 in10.0 miWest (270°)10.4 mphClear
4:53 PM52.0 °F27.0 °F38 %30.08 in10.0 miNNW (330°)8.1 mphPartly Cloudy
5:53 PM50.0 °F28.9 °F44 %30.12 in10.0 miNNW (330°)13.8 mph19.6 mphOvercast
6:53 PM45.0 °F28.9 °F53 %30.17 in10.0 miNNW (330°)18.4 mph28.8 mphOvercast
7:53 PM37.9 °F27.0 °F65 %30.23 in10.0 miNW (320°)15.0 mph29.9 mphOvercast
8:53 PM36.0 °F23.0 °F59 %30.28 in10.0 miNW (320°)13.8 mph24.2 mphOvercast
9:36 PM33.8 °F24.8 °F70 %30.30 in10.0 miNNW (330°)11.5 mph19.6 mphOvercast
9:53 PM33.1 °F21.0 °F61 %30.32 in10.0 miNNW (330°)11.5 mph20.7 mphMostly Cloudy
10:53 PM30.0 °F10.0 °F43 %30.37 in10.0 miNW (320°)15.0 mph21.9 mphClear
11:53 PM28.0 °F10.0 °F47 %30.38 in10.0 miNNW (340°)9.2 mphClear
Hourly data recorded from KJBR, located miles away from Bono, Arkansas







STORIES FROM OUR PARTNERS